Waarnemingen

Advertentie
Mijn weer
Annecy-Meythet, Frankrijk (7490): temperatuur & dauwpunt: 20.04.2018 11:00:00 - 26.04.2018 11:00:00 (CEST)Annecy-Meythet, Frankrijk (7490): temperatuur 5cm: 20.04.2018 11:00:00 - 26.04.2018 11:00:00 (CEST)Annecy-Meythet, Frankrijk (7490): temperatuur -20cm & temperatuur -100cm: 20.04.2018 11:00:00 - 26.04.2018 11:00:00 (CEST)Annecy-Meythet, Frankrijk (7490): windsnelheid & windstoten: 20.04.2018 11:00:00 - 26.04.2018 11:00:00 (CEST)Annecy-Meythet, Frankrijk (7490): windrichting: 20.04.2018 11:00:00 - 26.04.2018 11:00:00 (CEST)Annecy-Meythet, Frankrijk (7490): luchtdruk: 20.04.2018 11:00:00 - 26.04.2018 11:00:00 (CEST)Annecy-Meythet, Frankrijk (7490): zicht: 20.04.2018 11:00:00 - 26.04.2018 11:00:00 (CEST)Annecy-Meythet, Frankrijk (7490): neerslag: 20.04.2018 11:00:00 - 26.04.2018 11:00:00 (CEST)
Datum & Tijd tt [°C] td [°C] tt 5cm [°C] tt -20cm [°C] tt -100cm [°C] ff [km/u] ff [kn] fx [km/u] fx [kn] dd ppp [hPa] vv [km] rr [mm]
26.04.2018 11:00:00 15,9 3,3 16,4 14,6 10,3 10 6 21 11 NNW 1019,2 45 0,0
26.04.2018 10:00:00 14,0 4,6 12,4 14,6 10,3 8 4 19 10 WNW 1019,9 60 0,0
26.04.2018 09:00:00 12,5 3,7 11,7 14,8 10,3 11 6 21 12 W 1020,5 60 0,0
26.04.2018 08:00:00 12,4 6,0 11,9 15,0 10,3 10 6 19 10 WNW 1020,4 60 0,0
26.04.2018 07:00:00 12,6 6,2 11,7 15,2 10,3 10 6 20 11 WNW 1020,0 60 0,0
26.04.2018 06:00:00 12,9 7,6 12,0 15,3 10,3 8 4 14 7 W 1020,0 60 0,0
26.04.2018 05:00:00 13,1 8,0 12,1 15,5 10,3 4 2 11 6 W 1019,9 60 0,0
26.04.2018 04:00:00 13,1 8,6 12,5 15,6 10,3 7 4 12 6 ZW 1020,0 60 0,0
26.04.2018 03:00:00 13,5 7,9 12,0 15,8 10,3 6 3 11 6 W 1020,0 60 0,0
26.04.2018 02:00:00 13,7 7,2 12,2 16,1 10,3 8 4 29 15 W 1019,8 60 0,0
26.04.2018 01:00:00 14,9 7,0 14,2 16,3 10,3 11 6 26 14 W 1019,2 60 0,0
26.04.2018 00:00:00 15,4 6,9 14,9 16,6 10,2 18 10 36 19 WNW 1018,7 60 0,0
25.04.2018 23:00:00 16,3 7,2 15,7 16,9 10,2 13 7 47 26 WNW 1017,9 60 0,0
25.04.2018 22:00:00 17,2 8,1 16,2 17,2 10,2 23 13 48 26 WNW 1016,7 57 0,0
25.04.2018 21:00:00 17,5 11,1 16,6 17,4 10,2 18 10 35 19 NW 1015,6 31 0,0
25.04.2018 20:00:00 20,6 11,2 19,1 17,6 10,2 12 6 37 20 WNW 1013,9 19 0,0
25.04.2018 19:00:00 22,5 9,3 21,4 17,6 10,2 14 8 28 15 WZW 1013,3 53 0,0
25.04.2018 18:00:00 24,3 8,3 24,2 17,5 10,2 8 4 31 17 WZW 1013,0 47 0,0
25.04.2018 17:00:00 24,4 9,5 26,0 17,3 10,2 11 6 33 18 WZW 1013,4 15 0,0
25.04.2018 16:00:00 23,7 10,4 27,9 17,0 10,2 14 8 32 17 ZZW 1014,2 20 0,0
25.04.2018 15:00:00 23,4 11,1 24,1 16,6 10,2 16 9 32 18 ZW 1015,3 20 0,0
25.04.2018 14:00:00 23,4 10,1 27,3 15,9 10,1 19 11 37 20 WZW 1015,6 35 0,0
25.04.2018 13:00:00 22,1 12,6 27,5 15,2 10,1 18 10 32 17 ZZW 1016,0 42 0,0
25.04.2018 12:00:00 21,0 11,9 23,1 14,6 10,1 17 9 27 15 ZW 1017,0 20 0,0
25.04.2018 11:00:00 18,8 9,8 21,9 14,2 10,1 11 6 19 10 ZW 1017,4 39 0,0
25.04.2018 10:00:00 19,6 8,9 23,1 13,9 10,1 3 2 11 6 Z 1017,2 19 0,0
25.04.2018 09:00:00 16,0 9,2 13,3 13,9 10,1 6 3 13 7 NNO 1017,7 38 0,0
25.04.2018 08:00:00 12,0 9,4 9,1 14,1 10,1 6 3 13 7 ONO 1018,6 20 0,0
25.04.2018 07:00:00 9,8 8,1 7,9 14,3 10,1 5 3 9 5 ONO 1018,7 44 0,0
25.04.2018 06:00:00 9,9 7,7 8,4 14,5 10,1 6 3 13 7 ONO 1018,1 49 0,0
25.04.2018 05:00:00 10,2 8,5 8,4 14,7 10,1 8 4 15 8 NO 1017,9 34 0,0
25.04.2018 04:00:00 10,3 8,4 9,1 15,0 10,1 11 6 14 8 NO 1017,8 47 0,0
25.04.2018 03:00:00 11,0 8,6 9,2 15,3 10,1 12 7 18 10 NO 1017,7 45 0,0
25.04.2018 02:00:00 11,0 8,6 9,4 15,6 10,1 12 7 19 11 NO 1017,7 46 0,0
25.04.2018 01:00:00 11,9 8,4 10,4 16,0 10,0 12 7 21 12 NO 1017,8 49 0,0
25.04.2018 00:00:00 12,4 8,7 10,2 16,3 10,0 10 5 18 10 NNO 1017,8 45 0,0
24.04.2018 23:00:00 13,1 8,8 10,4 16,6 10,0 8 5 13 7 NO 1017,9 52 0,0
24.04.2018 22:00:00 15,3 9,0 11,6 16,9 10,0 6 4 9 5 NO 1017,2 50 0,0
24.04.2018 21:00:00 19,1 8,4 14,3 17,1 10,0 6 4 18 10 WNW 1016,0 60 0,0
24.04.2018 20:00:00 20,9 9,2 19,8 17,2 10,0 12 7 23 13 ZW 1015,3 57 0,0
24.04.2018 19:00:00 22,4 8,1 25,7 17,1 10,0 15 8 24 13 ZW 1014,9 19 0,0
24.04.2018 18:00:00 23,9 7,1 27,3 17,0 10,0 10 5 22 12 WNW 1014,8 52 0,0
24.04.2018 17:00:00 23,9 7,1 26,8 16,8 10,0 11 6 21 12 WZW 1015,0 48 0,0
24.04.2018 16:00:00 23,7 5,1 27,2 16,5 10,0 9 5 22 12 W 1015,7 43 0,0
24.04.2018 15:00:00 23,5 3,4 28,3 16,1 10,0 6 4 19 10 W 1016,6 55 0,0
24.04.2018 14:00:00 23,1 5,9 26,9 15,3 9,9 4 2 20 11 NNW 1017,2 56 0,0
24.04.2018 13:00:00 21,5 7,0 26,2 14,6 9,9 13 7 24 13 WNW 1018,0 20 0,0
24.04.2018 12:00:00 20,6 10,7 26,8 13,9 9,9 4 2 13 7 WNW 1018,6 20 0,0
24.04.2018 11:00:00 19,0 11,1 24,3 13,4 9,9 3 2 8 4 ZZW 1019,4 20 0,0
24.04.2018 10:00:00 16,8 10,2 21,0 13,2 9,9 2 1 7 4 W 1020,0 54 0,0
24.04.2018 09:00:00 14,8 8,7 13,6 13,2 9,9 4 2 9 5 O 1020,6 43 0,0
24.04.2018 08:00:00 11,7 9,1 6,5 13,3 9,9 0 0 10 5 N 1021,2 19 0,0
24.04.2018 07:00:00 7,7 6,8 5,5 13,6 9,9 7 4 10 6 NO 1021,8 19 0,0
24.04.2018 06:00:00 7,7 6,8 5,5 13,9 9,9 5 3 8 5 ONO 1021,6 20 0,0
24.04.2018 05:00:00 8,8 7,7 6,1 14,2 9,9 4 2 8 4 ONO 1021,2 50 0,0
24.04.2018 04:00:00 9,2 7,8 6,9 14,4 9,8 6 3 10 5 NNO 1021,3 60 0,0
24.04.2018 03:00:00 10,7 9,1 7,6 14,7 9,9 3 2 8 5 NO 1020,9 60 0,0
24.04.2018 02:00:00 10,5 8,8 8,5 15,0 9,8 5 3 9 5 O 1021,1 60 0,0
24.04.2018 01:00:00 11,7 9,1 9,7 15,2 9,8 5 3 10 5 NNO 1021,2 60 0,0
24.04.2018 00:00:00 12,1 9,7 10,1 15,5 9,8 6 3 11 6 NNO 1021,2 47 0,0
23.04.2018 23:00:00 13,3 9,4 10,5 15,8 9,8 3 1 12 7 N 1020,7 59 0,0
23.04.2018 22:00:00 15,0 9,6 11,6 16,0 9,8 9 5 12 6 WNW 1020,0 59 0,0
23.04.2018 21:00:00 14,8 9,6 12,5 16,2 9,8 6 3 21 12 ZZO 1019,5 60 0,0
23.04.2018 20:00:00 18,0 10,1 17,3 16,3 9,7 14 8 22 12 NW 1018,5 60 0,0
23.04.2018 19:00:00 18,9 11,9 18,8 16,4 9,8 5 3 20 11 NNO 1017,9 48 0,0
23.04.2018 18:00:00 19,3 11,3 18,9 16,4 9,7 14 8 31 17 WNW 1017,9 20 0,0
23.04.2018 17:00:00 19,5 10,2 19,4 16,2 9,7 14 8 32 17 NW 1017,7 36 0,0
23.04.2018 16:00:00 22,1 10,3 22,9 16,0 9,7 15 8 32 17 WZW 1017,2 19 0,0
23.04.2018 15:00:00 20,7 8,7 18,5 15,8 9,7 20 11 31 17 WZW 1018,0 20 0,0
23.04.2018 14:00:00 19,2 8,5 16,5 15,7 9,7 11 6 42 23 WZW 1018,5 48 0,0
23.04.2018 13:00:00 19,9 7,3 21,1 15,3 9,7 18 10 32 18 ZW 1018,5 53 0,0
23.04.2018 12:00:00 20,5 8,8 22,5 14,8 9,7 10 5 19 11 ZW 1017,9 56 0,0
23.04.2018 11:00:00 20,6 8,9 23,3 14,5 9,7 3 2 11 6 ZZW 1017,6 18 0,0
23.04.2018 10:00:00 17,8 10,4 18,7 14,3 9,6 5 3 8 4 O 1018,2 20 0,0
23.04.2018 09:00:00 15,4 10,0 15,1 14,3 9,6 5 3 16 9 ONO 1018,5 39 0,0
23.04.2018 08:00:00 12,7 8,8 9,4 14,5 9,6 3 2 12 7 N 1018,9 20 0,0
23.04.2018 07:00:00 11,1 8,3 9,4 14,8 9,6 8 5 14 8 NO 1018,9 19 0,0
23.04.2018 06:00:00 10,8 8,7 9,4 15,0 9,6 12 7 16 8 ONO 1019,2 40 0,0
23.04.2018 05:00:00 12,6 8,9 10,1 15,2 9,6 6 3 10 6 NNO 1019,0 18 0,0
23.04.2018 04:00:00 12,6 8,7 10,2 15,5 9,6 2 1 8 4 NNW 1019,1 48 0,0
23.04.2018 03:00:00 13,2 8,5 11,5 15,7 9,6 4 2 18 10 N 1019,0 52 0,0
23.04.2018 02:00:00 12,7 8,8 10,7 16,0 9,6 8 5 13 7 NO 1019,1 57 0,0
23.04.2018 01:00:00 13,6 8,2 11,0 16,3 9,6 0 0 11 6 N 1018,6 60 0,0
23.04.2018 00:00:00 14,5 8,2 11,7 16,7 9,5 6 3 18 10 NNO 1017,9 59 0,0
22.04.2018 23:00:00 15,1 8,1 12,0 17,0 9,5 7 4 15 8 ONO 1017,6 54 0,0
22.04.2018 22:00:00 16,2 9,6 13,2 17,3 9,5 3 2 20 11 ONO 1017,0 60 0,0
22.04.2018 21:00:00 21,1 5,8 14,7 17,6 9,5 13 7 25 14 WZW 1015,2 60 0,0
22.04.2018 20:00:00 23,0 7,9 19,1 17,7 9,5 6 3 22 12 W 1014,1 60 0,0
22.04.2018 19:00:00 24,9 9,2 26,2 17,7 9,5 11 6 26 14 WZW 1013,3 20 0,0
22.04.2018 18:00:00 25,7 9,1 27,7 17,6 9,5 13 7 23 13 W 1013,1 56 0,0
22.04.2018 17:00:00 25,6 9,4 28,1 17,4 9,5 16 9 27 15 WZW 1013,5 60 0,0
22.04.2018 16:00:00 25,3 11,5 28,5 17,1 9,5 11 6 24 13 ZW 1013,9 60 0,0
22.04.2018 15:00:00 25,3 9,6 29,3 16,5 9,5 13 7 24 13 W 1014,6 52 0,0
22.04.2018 14:00:00 24,2 10,5 28,8 15,7 9,4 8 4 21 11 ZZW 1015,2 40 0,0
22.04.2018 13:00:00 23,3 9,7 27,7 15,0 9,4 10 6 19 10 ZW 1015,9 54 0,0
22.04.2018 12:00:00 21,8 9,3 27,7 14,3 9,4 6 3 19 10 ZW 1016,8 51 0,0
22.04.2018 11:00:00 21,6 8,5 24,7 13,9 9,4 0 0 10 6 N 1017,3 55 0,0
22.04.2018 10:00:00 18,6 7,7 21,7 13,7 9,4 3 2 10 5 NO 1018,0 60 0,0
22.04.2018 09:00:00 16,7 8,4 16,3 13,6 9,4 5 3 11 6 O 1018,4 56 0,0
22.04.2018 08:00:00 12,4 8,3 8,7 13,8 9,4 8 5 16 9 NO 1019,2 45 0,0
22.04.2018 07:00:00 9,3 7,2 8,5 14,1 9,4 13 7 19 11 NO 1019,5 39 0,0
22.04.2018 06:00:00 9,7 7,0 8,6 14,4 9,3 11 6 26 14 NO 1019,1 45 0,0
22.04.2018 05:00:00 10,8 7,3 8,9 14,7 9,3 15 8 21 12 NO 1019,2 48 0,0
22.04.2018 04:00:00 12,3 7,0 10,1 15,1 9,3 10 5 20 11 NNO 1019,0 59 0,0
22.04.2018 03:00:00 12,7 7,2 10,5 15,4 9,3 11 6 16 9 NNO 1019,0 60 0,0
22.04.2018 02:00:00 12,4 7,9 10,2 15,7 9,3 10 5 14 8 NNO 1019,5 52 0,0
22.04.2018 01:00:00 13,1 8,2 11,0 16,1 9,3 10 5 15 8 NO 1019,4 51 0,0
22.04.2018 00:00:00 14,5 8,4 11,7 16,4 9,3 9 5 14 8 NNO 1018,8 53 0,0
21.04.2018 23:00:00 15,3 8,5 12,3 16,7 9,2 8 5 13 7 N 1018,2 56 0,0
21.04.2018 22:00:00 17,2 9,1 13,1 17,1 9,3 6 4 12 7 NO 1017,5 49 0,0
21.04.2018 21:00:00 19,3 8,0 14,2 17,3 9,2 3 2 14 8 NO 1016,3 20 0,0
21.04.2018 20:00:00 25,1 5,3 22,5 17,3 9,2 6 3 13 7 NW 1014,8 29 0,0
21.04.2018 19:00:00 27,0 6,4 29,0 17,3 9,2 7 4 16 9 NNW 1014,5 56 0,0
21.04.2018 18:00:00 27,4 6,2 30,1 17,3 9,2 9 5 19 11 WNW 1014,8 54 0,0
21.04.2018 17:00:00 27,2 4,3 30,3 17,2 9,2 12 6 22 12 WNW 1015,3 44 0,0
21.04.2018 16:00:00 27,4 8,3 31,9 16,8 9,2 7 4 18 10 W 1015,8 55 0,0
21.04.2018 15:00:00 26,9 9,7 31,1 16,1 9,2 4 2 15 8 WZW 1016,6 58 0,0
21.04.2018 14:00:00 26,1 7,6 30,0 15,2 9,1 3 2 10 6 NNW 1017,5 53 0,0
21.04.2018 13:00:00 23,9 8,3 29,4 14,4 9,2 5 3 11 6 ZZO 1018,6 57 0,0
21.04.2018 12:00:00 22,5 7,8 26,6 13,7 9,1 3 1 8 5 Z 1019,8 18 0,0
21.04.2018 11:00:00 20,3 6,6 22,8 13,2 9,1 2 1 8 4 ZZO 1020,9 48 0,0
21.04.2018 10:00:00 17,6 5,5 20,6 13,0 9,1 4 2 14 8 OZO 1021,4 59 0,0
21.04.2018 09:00:00 15,5 6,2 14,4 13,0 9,1 5 3 13 7 ONO 1022,0 51 0,0
21.04.2018 08:00:00 11,1 7,6 7,0 13,3 9,1 10 5 12 7 ONO 1022,9 50 0,0
21.04.2018 07:00:00 8,8 5,9 6,9 13,5 9,1 6 3 17 9 NNO 1023,1 59 0,0
21.04.2018 06:00:00 8,4 6,2 7,1 13,8 9,1 9 5 15 8 NO 1022,9 54 0,0
21.04.2018 05:00:00 9,4 6,7 7,9 14,2 9,1 10 5 17 9 NO 1022,8 58 0,0
21.04.2018 04:00:00 10,2 6,7 8,1 14,5 9,1 9 5 14 8 NO 1022,7 59 0,0
21.04.2018 03:00:00 10,3 7,2 8,4 14,8 9,0 7 4 14 8 NO 1022,7 60 0,0
21.04.2018 02:00:00 12,1 6,8 10,2 15,2 9,0 9 5 20 11 NNO 1022,3 60 0,0
21.04.2018 01:00:00 12,9 7,3 10,6 15,5 9,0 15 8 21 12 NO 1021,8 60 0,0
21.04.2018 00:00:00 13,7 7,5 11,8 15,9 9,0 14 7 19 10 NO 1021,7 56 0,0
20.04.2018 23:00:00 15,0 8,2 12,4 16,3 9,0 12 7 18 10 NO 1021,2 60 0,0
20.04.2018 22:00:00 18,9 6,7 13,5 16,6 9,0 8 4 16 9 O 1020,3 60 0,0
20.04.2018 21:00:00 21,2 7,1 15,3 16,8 9,0 6 3 12 7 NW 1019,5 51 0,0
20.04.2018 20:00:00 23,9 7,9 22,2 17,0 9,0 9 5 23 12 NW 1018,4 18 0,0
20.04.2018 19:00:00 25,9 7,9 27,2 17,0 9,0 12 7 20 11 N 1018,2 52 0,0
20.04.2018 18:00:00 26,6 7,1 29,5 17,0 8,9 13 7 23 12 N 1018,4 38 0,0
20.04.2018 17:00:00 26,5 7,0 29,7 16,9 8,9 16 9 29 16 NNW 1018,7 60 0,0
20.04.2018 16:00:00 26,8 6,8 30,7 16,4 8,9 9 5 20 11 NNW 1019,3 60 0,0
20.04.2018 15:00:00 26,3 10,4 29,5 15,7 8,9 8 4 23 13 W 1020,1 43 0,0
20.04.2018 14:00:00 25,2 10,6 29,4 14,8 8,9 9 5 21 11 WZW 1020,8 41 0,0
20.04.2018 13:00:00 24,1 10,0 29,2 13,9 8,9 7 4 18 10 ZZW 1021,6 49 0,0
20.04.2018 12:00:00 22,8 6,9 28,7 13,2 8,9 3 2 8 4 Z 1022,4 18 0,0
20.04.2018 11:00:00 20,4 6,0 25,6 12,7 8,9 3 2 8 5 Z 1023,4 20 0,0

tt = temperatuur
td = dauwpunt
tt 5cm = temperatuur 5cm
tt -20cm = temperatuur -20cm
tt -100cm = temperatuur -100cm
ff = windsnelheid
fx = windstoten
dd = windrichting
ppp = luchtdruk
vv = zicht
rr = neerslag

Weerstations in de omgeving